JONKER EPBY-EPBY

Flight info

Callsign JONKER
Flight time 0h 0m
Altitude 10000
Route EPBY TMA TRAFFIC PATTERNS/LOCAL SOARING
Aircraft GLID/L-GVY/F

Departure

Time 2026-05-05 11:33
Airport Ignacy Jan Paderewski Bydgoszcz Airport (EPBY)

Arrival

Time 2026-05-05 11:33
Airport Ignacy Jan Paderewski Bydgoszcz Airport (EPBY)
Time Latitude Longitude Altitude Speed Heading
2026-05-05 11:31 53.10603 17.95248 217 ft 0 kts 82°
2026-05-05 11:33 53.10605 17.95273 217 ft 35 kts 82°
2026-05-05 11:33 53.10642 17.95890 1261 ft 55 kts 85°
2026-05-05 11:33 53.10677 17.96450 1698 ft 39 kts 87°
2026-05-05 11:33 53.10731 17.96982 1674 ft 51 kts 51°
2026-05-05 11:34 53.10993 17.96730 1682 ft 63 kts 255°
2026-05-05 11:34 53.10718 17.96725 1711 ft 54 kts 84°
2026-05-05 11:34 53.10999 17.96682 1752 ft 63 kts 275°
2026-05-05 11:34 53.10704 17.96395 1762 ft 55 kts 146°
2026-05-05 11:35 53.10698 17.96897 1763 ft 58 kts 30°
2026-05-05 11:35 53.10917 17.96432 1749 ft 71 kts 242°
2026-05-05 11:35 53.10583 17.96421 1742 ft 61 kts 101°
2026-05-05 11:35 53.10900 17.96604 1764 ft 68 kts 315°
2026-05-05 11:36 53.10789 17.95973 1730 ft 66 kts 190°
2026-05-05 11:36 53.10602 17.96390 1743 ft 60 kts 56°
2026-05-05 11:36 53.10966 17.96254 1756 ft 67 kts 294°
2026-05-05 11:36 53.10824 17.95571 1702 ft 66 kts 230°
2026-05-05 11:37 53.10753 17.94906 1724 ft 67 kts 323°
2026-05-05 11:37 53.10957 17.95205 1736 ft 58 kts 127°
2026-05-05 11:37 53.10664 17.94959 1767 ft 69 kts 281°
2026-05-05 11:37 53.10980 17.94926 1765 ft 56 kts 86°
2026-05-05 11:38 53.10712 17.94995 1763 ft 69 kts 254°
2026-05-05 11:38 53.11028 17.94687 1745 ft 61 kts 40°
2026-05-05 11:38 53.11097 17.95314 1759 ft 57 kts 95°
2026-05-05 11:38 53.11057 17.95965 1702 ft 59 kts 99°
2026-05-05 11:39 53.11006 17.96600 1710 ft 54 kts 94°
2026-05-05 11:39 53.10974 17.97259 1686 ft 58 kts 96°
2026-05-05 11:39 53.10926 17.97935 1665 ft 59 kts 97°
2026-05-05 11:39 53.10871 17.98606 1665 ft 59 kts 96°
2026-05-05 11:40 53.11086 17.99008 1657 ft 63 kts 349°
2026-05-05 11:40 53.11493 17.98762 1625 ft 62 kts 344°
2026-05-05 11:40 53.11791 17.98298 1564 ft 67 kts 278°
2026-05-05 11:40 53.11872 17.97511 1493 ft 69 kts 291°
2026-05-05 11:41 53.12189 17.96965 1456 ft 67 kts 304°
2026-05-05 11:41 53.12353 17.96295 1440 ft 64 kts 251°
2026-05-05 11:41 53.12046 17.95775 1406 ft 63 kts 203°
2026-05-05 11:41 53.11627 17.95748 1386 ft 61 kts 173°
2026-05-05 11:42 53.11197 17.95795 1373 ft 64 kts 173°
2026-05-05 11:42 53.10772 17.95821 1371 ft 58 kts 171°
2026-05-05 11:42 53.10377 17.95890 1341 ft 59 kts 172°
2026-05-05 11:42 53.10033 17.96118 1342 ft 56 kts 79°
2026-05-05 11:43 53.10374 17.96134 1291 ft 62 kts 336°
2026-05-05 11:43 53.10655 17.96244 1192 ft 62 kts 91°
2026-05-05 11:43 53.10822 17.96708 1232 ft 58 kts 345°
2026-05-05 11:43 53.10777 17.96199 1211 ft 62 kts 181°
2026-05-05 11:44 53.10711 17.96630 1232 ft 55 kts 24°
2026-05-05 11:44 53.10928 17.96219 1236 ft 60 kts 247°
2026-05-05 11:44 53.10657 17.96210 1204 ft 56 kts 81°
2026-05-05 11:44 53.10652 17.96845 1185 ft 59 kts 129°
2026-05-05 11:45 53.10542 17.96434 1144 ft 62 kts 306°
2026-05-05 11:45 53.10663 17.96702 1126 ft 63 kts 161°
2026-05-05 11:45 53.10669 17.96341 1069 ft 62 kts 41°
2026-05-05 11:45 53.10668 17.97078 1038 ft 62 kts 87°
2026-05-05 11:46 53.10686 17.97538 1030 ft 59 kts 63°
2026-05-05 11:46 53.11048 17.97627 984 ft 61 kts 341°
2026-05-05 11:46 53.11415 17.97361 976 ft 57 kts 337°
2026-05-05 11:46 53.11504 17.96752 934 ft 64 kts 255°
2026-05-05 11:47 53.11373 17.96056 927 ft 64 kts 256°
2026-05-05 11:47 53.11265 17.95360 948 ft 59 kts 261°
2026-05-05 11:47 53.11332 17.94800 908 ft 55 kts
2026-05-05 11:47 53.11214 17.95278 849 ft 73 kts 181°
2026-05-05 11:48 53.11048 17.94963 827 ft 63 kts 270°
2026-05-05 11:48 53.11046 17.94259 791 ft 57 kts 279°
2026-05-05 11:48 53.11007 17.93598 799 ft 65 kts 233°
2026-05-05 11:49 53.10599 17.93479 758 ft 61 kts 156°
2026-05-05 11:49 53.10528 17.94094 573 ft 57 kts 78°
2026-05-05 11:49 53.10572 17.94744 388 ft 64 kts 74°
2026-05-05 11:49 53.10614 17.95362 217 ft 21 kts 82°
2026-05-05 11:50 53.10617 17.95386 217 ft 0 kts 82°
2026-05-05 11:51 53.10619 17.95422 217 ft 42 kts 81°
2026-05-05 11:51 53.10647 17.96114 1187 ft 62 kts 81°
2026-05-05 11:52 53.10710 17.96679 1418 ft 49 kts 77°
2026-05-05 11:52 53.10904 17.97113 1356 ft 61 kts 352°
2026-05-05 11:52 53.11086 17.96474 1285 ft 67 kts 275°
2026-05-05 11:52 53.11126 17.95701 1274 ft 64 kts 275°
2026-05-05 11:53 53.11163 17.94986 1269 ft 61 kts 277°
2026-05-05 11:53 53.11239 17.94316 1219 ft 58 kts 281°
2026-05-05 11:53 53.11141 17.93736 1199 ft 57 kts 194°
2026-05-05 11:53 53.10940 17.94155 1133 ft 57 kts 91°
2026-05-05 11:54 53.10923 17.94817 1111 ft 56 kts 88°
2026-05-05 11:54 53.10928 17.95456 1069 ft 55 kts 94°
2026-05-05 11:54 53.11129 17.95816 1050 ft 52 kts 335°
2026-05-05 11:54 53.11088 17.95265 1014 ft 64 kts 208°
2026-05-05 11:55 53.10792 17.95536 955 ft 55 kts 105°
2026-05-05 11:55 53.10618 17.96125 953 ft 60 kts 146°
2026-05-05 11:55 53.10507 17.95766 858 ft 60 kts 350°
2026-05-05 11:55 53.10443 17.96063 818 ft 73 kts 219°
2026-05-05 11:56 53.10589 17.95630 752 ft 56 kts 12°
2026-05-05 11:56 53.10823 17.95357 777 ft 59 kts 258°
2026-05-05 11:56 53.10482 17.95161 723 ft 60 kts 143°
2026-05-05 11:56 53.10549 17.95605 637 ft 55 kts 343°
2026-05-05 11:57 53.10828 17.95143 599 ft 56 kts 314°
2026-05-05 11:57 53.11035 17.94622 607 ft 53 kts 307°
2026-05-05 11:57 53.10843 17.94275 583 ft 60 kts 131°
2026-05-05 11:57 53.10629 17.94943 318 ft 65 kts 83°
2026-05-05 11:58 53.10646 17.95464 217 ft 1 kts 84°
2026-05-05 11:59 53.10655 17.95734 477 ft 59 kts 84°
2026-05-05 11:59 53.10661 17.96373 1361 ft 45 kts 81°
2026-05-05 12:00 53.10725 17.96906 1313 ft 54 kts 81°
2026-05-05 12:00 53.10668 17.97549 1233 ft 62 kts 115°
2026-05-05 12:00 53.10499 17.98210 1178 ft 62 kts 99°
2026-05-05 12:00 53.10483 17.98898 1111 ft 60 kts 59°
2026-05-05 12:01 53.10749 17.98496 858 ft 87 kts 269°
2026-05-05 12:01 53.10715 17.97335 420 ft 118 kts 271°
2026-05-05 12:01 53.10654 17.95930 229 ft 116 kts 269°
2026-05-05 12:01 53.10690 17.95084 571 ft 53 kts 297°
2026-05-05 12:02 53.10671 17.94485 591 ft 65 kts 214°
2026-05-05 12:02 53.10499 17.94810 425 ft 61 kts 52°
2026-05-05 12:02 53.10620 17.95601 285 ft 72 kts 82°
2026-05-05 12:02 53.10606 17.96396 229 ft 63 kts 85°
2026-05-05 12:03 53.10596 17.96857 217 ft 0 kts 94°